Regional Weather Roundup
Issued by NWS Upton, NY

Home | Current Version | Previous Version | Text Only | Print | Product List | Glossary On
Versions: 1 2 3 4 5 6 7 8 9 10 11 12 13 14 15 16 17 18 19 20 21 22 23 24 25 26 27 28 29 30 31 32 33 34 35 36 37 38 39 40 41 42 43 44 45 46 47 48 49 50
000
ASUS41 KOKX 021018
RWROKX

REGIONAL WEATHER ROUNDUP
NATIONAL WEATHER SERVICE NEW YORK NY
600 AM EDT THU JUL 02 2015

NOTE: "FAIR" INDICATES FEW OR NO CLOUDS BELOW 12,000 FEET WITH NO
SIGNIFICANT WEATHER AND/OR OBSTRUCTIONS TO VISIBILITY.

NYZ071-072-176-178-NJZ106-104-021100-
NEW YORK CITY METRO AREA


CITY           SKY/WX    TMP DP  RH WIND       PRES   REMARKS
CENTRAL PARK   CLEAR     69  58  67 CALM      29.91R
LAGUARDIA APRT PTCLDY    71  57  61 NW5       29.87R
KENNEDY INTL   PTCLDY    71  58  63 N3        29.89R
NEWARK/LIBERTY PTCLDY    68  60  75 CALM      29.88R
BRNX BOT. GARD   N/A     66  57  72 NE1       29.88S
TETERBORO      CLEAR     65  59  81 CALM      29.88R
$$

NYZ177-179-078>081-021100-
LONG ISLAND NEW YORK

CITY           SKY/WX    TMP DP  RH WIND       PRES   REMARKS
FARMINGDALE    CLEAR     67  59  75 CALM      29.88R
ISLIP          PTCLDY    63  59  87 CALM      29.87R
SHIRLEY        CLEAR     61  59  93 CALM      29.89R FOG
WESTHAMPTON    CLEAR     56  55  97 CALM      29.89R FOG
MONTAUK POINT    N/A     67  64  90 CALM      29.89R
$$

NYZ052-065-067-021100-
HUDSON VALLEY

CITY           SKY/WX    TMP DP  RH WIND       PRES   REMARKS
WHITE PLAINS   PTCLDY    61  58  90 CALM      29.88R
NEWBURGH       MOCLDY    59  59 100 CALM      29.89S
MONTGOMERY     PTCLDY    59  57  93 S3        29.89R
POUGHKEEPSIE   PTCLDY    59  57  93 CALM      29.87S
ALBANY         MOCLDY    61  55  81 W6        29.88S
$$

NJZ001-105-106-008-010-013-015-019>022-104-021100-
NEW JERSEY

CITY           SKY/WX    TMP DP  RH WIND       PRES   REMARKS
NEWARK/LIBERTY PTCLDY    68  60  75 CALM      29.88R
TETERBORO      CLEAR     65  59  81 CALM      29.88R
CALDWELL       CLEAR     61  58  90 CALM      29.90R FOG
MORRISTOWN     PTCLDY    61  57  88 CALM      29.90R FOG
SOMERVILLE     CLEAR     59  57  93 MISG      29.88R FOG
SUSSEX         PTCLDY    57  56  96 CALM      29.91R FOG
ANDOVER          N/A     58  57  97 CALM      29.91R
TRENTON        MOCLDY    64  60  87 CALM      29.89R FOG
MILLVILLE      PTCLDY    66  64  93 CALM      29.88S FOG
ATLANTIC CITY  NOT AVBL
WRIGHTSTOWN    CLEAR     62  62  99 CALM      29.87R
TOMS RIVER     MOCLDY    61  57  88 CALM      29.89S
BELMAR         CLEAR     63  57  82 CALM      29.89R
$$

PAZ047>061-062-071-021100-
EASTERN PENNSYLVANIA

CITY           SKY/WX    TMP DP  RH WIND       PRES   REMARKS
PHILADELPHIA   PTCLDY    67  60  78 CALM      29.88S
ALLENTOWN      PTCLDY    61  57  88 CALM      29.90R
SCRANTON       MOCLDY    59  55  87 SE3       29.92R
$$

CTZ002-004>006-009-010-012-RIZ004-006-007-MAZ004-011-015-021100-
SOUTHERN NEW ENGLAND
 IN CT

CITY           SKY/WX    TMP DP  RH WIND       PRES   REMARKS
BRADLEY INTL   PTCLDY    61  57  87 S3        29.87R
HARTFORD       CLEAR     61  60  97 MISG      29.87R
DANBURY        CLEAR     59  55  87 SW3       29.90R
WTRBRY/OXFORD  CLEAR     61  52  72 CALM      29.90R
BRIDGEPORT     CLEAR     67  60  78 W5        29.88R
MERIDEN        CLEAR     59  57  93 CALM      29.87R
NEW HAVEN      PTCLDY    62  59  90 CALM      29.88R
CHESTER        FAIR      61  59  94 CALM      29.89S
GROTON         CLEAR     61  59  93 CALM      29.87R FOG
WILLIMANTIC    CLEAR     59  57  93 CALM      29.88R

 IN RI

CITY           SKY/WX    TMP DP  RH WIND       PRES   REMARKS
PROVIDENCE     PTCLDY    64  58  80 W7        29.87R
BLOCK ISLAND   CLEAR     64  61  88 SW6       29.88R
WESTERLY       CLEAR     61  59  93 CALM      29.88R

 IN MA

CITY           SKY/WX    TMP DP  RH WIND       PRES   REMARKS
BOSTON         PTCLDY    65  57  75 W12       29.83S
WORCESTER      CLEAR     61  55  81 W12       29.87R
WESTFIELD      CLEAR     64  56  75 NW8       29.86R
PROVINCETOWN   CLEAR     63   7  11 W8        29.84F
NANTUCKET      CLEAR     62  60  93 SW5       29.88R FOG
$$

ANZ330-335-338-340-345-350-353-355-021100-
COASTAL MARINE OBSERVATIONS


STATION/POSITION TIME  SKY/WX   TEMP    WIND        PRES    VSBY  WAVE
                                AIR SEA DIR/SP/G                  HT/PER
                 (UTC)          (F)     (DEG/KT/KT) (MB)    (MI)  (FT/S)
NY HARB ENTRANCE 0950            71 70  300/  4/  4 1011.4          4/ 8
4S FIRE IS       0903               69                N/A           5/ 8
20S FIRE ISLAND  0950            68 66  280/  4/  4 1011.4          5/ 8
GREAT SOUTH BAY  0900            71 74   CALM  /  2   N/A
23SW MTP         0950            67 66  260/  4/  6 1011.3          5/ 7
HUDSON CANYON    NOT AVBL
KINGS POINT      0900            69 67   CALM  /  4 1010.7
CENTRAL LI SOUND NOT AVBL
EASTERN LI SOUND 0900            65 65  250/  4/  4   N/A
ROBBINS REEF     0900            70     270/  5/  5 1010.5
$$


>>>>>>>>>>>>>>>>>>>>>>>>>>>> KEY <<<<<<<<<<<<<<<<<<<<<<<<<<<
>                                                          <
>     SKY/WX - SKY CONDITION/PRESENT WEATHER               <
>     TMP    - TEMPERATURE IN FAHRENHEIT                   <
>     DP     - DEWPOINT IN FAHRENHEIT                      <
>     RH     - RELATIVE HUMIDITY IN PERCENT                <
>     WIND   - DIRECTION AND SPEED IN MPH                  <
>     PRES   - MEAN SEA LEVEL PRESSURE IN INCHES OF HG     <
>     WCI    - WIND CHILL INDEX                            <
>     VSB    - VISIBILITY IN MILES                         <
>     HX     - HEAT INDEX                                  <
>     TC     - TEMPERATURE IN CELSIUS                      <
>     VRB    - VARIABLE WIND DIRECTION                     <
>                                                          <
>>>>>>>>>>>>>>>>>>>>>>>>>>>> KEY <<<<<<<<<<<<<<<<<<<<<<<<<<<





USA.gov is the U.S. government's official web portal to all federal, state and local government web resources and services.